STARLINK-32467, 61713

Orbit data source: Space-Track

STARLINK-32467, 61713 is a payload satellite owned by SpaceX/Seattle (US) in LEO that was launched on Wed, 30 Oct 2024 UTC via an FALCON 9 launch vehicle from the Air Force Eastern Test Range (AFETR). Payload-class satellites include a variety of spacecraft equipped with specific instruments for various scientific and technological missions. These include communications satellites like Starlink; space stations such as the ISS; scientific satellites like the Hubble; Earth observation satellites from companies like Planet Labs, Umbra, and HawkEye 360; GPS; miniature CubeSats for education and research; and military/defense satellites.

Loading next visibility...
Identifier
61713, 2024-196G
Orbit
LEO
Country
Flag of USUS
Related business
Manufacturer
SpaceX/Seattle
Mission
Operational Commercial Communications
Bus & Motor
STARLINK V2M, Unknown motor
Mass
730 kg wet, ~700 kg dry
Launch date (UTC)
2024-10-30 (1 year ago)
Launch vehicle
FALCON 9
Launch site
Air Force Eastern Test Range (AFETR)
Object type
Payload
Rocket body
Debris
Shape & HBR
Box + 2 Pan, 17.7 m
Radar Cross Section
33.884 m², Large (>1 m²)

Expand to show TLE details & history
Last TLE update: 23 hours ago

TLE from 23 hours ago
0 STARLINK-32467
1 61713U 24196G   25348.13902841  .00004618  00000-0  16798-3 0  9993
2 61713  53.1581 139.0535 0001066 113.1179 246.9934 15.30191184 64050
Epoch: 2025-12-14T03:20Z
TLE epoch observation values (Epoch: 2025-12-14T03:20:12.054Z)
Latitude
-0.00004°
Longitude
5.94701°
Altitude
476.426 km
Speed
7.629 km/s
True Right ascension
09h 16m 12s
True Declination
0° 00' 00"
Sunlit
Object was in full shadow at epoch
Visualization orbit readout
Latitude
Unknown
Longitude
Unknown
Altitude
Unknown
Speed
Unknown
Apparent Right ascension
Unknown
Apparent Declination
Unknown
Sunlit
N/A
Visualization observer readout
Local Sidereal Time
00:38:20
Azimuth
Unknown
Elevation
Unknown
Doppler factor
Unknown
Orbital elements
Apogee altitude
476.229 km
Perigee altitude
474.768 km
Semi-major axis
6,853.635 km
Eccentricity
0.00011
Inclination
53.1581°
RAAN
139.0535°
Arg. of periapsis
113.1179°
True anomaly
246.98216°
Mean anomaly
246.9934°
Eccentric anomaly
246.98778°
Mean motion
3.82527 °/min
Orbital period
94.11 mins
BSTAR
0.00016798
Loading maneuver chart data...
Computing Atmospheric mass density...
Loading historical data...
Loading historical data...
Loading historical data...
Loading historical data...
Loading historical data...
Loading historical data...
Loading historical data...

Documentation

Showing up to 5 results
|